Location: Cairns City
(16.9233°S, 145.7733°E)
Time: 09:24:27
(UTC+10:00)

Hubble Space Telescope - Visible Passes

Search period start: 22 June 2018 00:00
Search period end: 02 July 2018 00:00
Orbit: 537 x 541 km, 28.5° (Epoch: 21 June)

Date Brightness Start Highest point End Pass type
(mag) Time Alt. Az. Time Alt. Az. Time Alt. Az.
22 Jun 3.6 04:40:47 10° SE 04:40:47 10° SE 04:40:50 10° SE visible
22 Jun 2.8 06:17:00 10° SW 06:19:42 16° S 06:22:25 10° SE visible
23 Jun 2.7 06:06:43 10° SW 06:09:32 17° S 06:12:20 10° SE visible
24 Jun 2.7 05:56:45 12° SSW 05:59:21 19° S 06:02:19 10° SE visible
25 Jun 2.5 05:47:01 15° SSW 05:49:09 21° S 05:52:19 10° ESE visible
26 Jun 2.4 05:37:17 18° SSW 05:38:56 23° SSE 05:42:19 10° ESE visible
27 Jun 2.1 05:27:33 24° SSW 05:28:42 27° SSE 05:32:17 10° ESE visible
28 Jun 1.8 05:17:50 31° S 05:18:28 32° SSE 05:22:13 10° E visible
29 Jun 1.5 05:08:08 40° SSE 05:08:11 40° SSE 05:12:06 10° E visible
30 Jun 1.5 04:58:28 47° SE 04:58:28 47° SE 05:01:57 10° E visible
01 Jul 1.9 04:48:48 43° E 04:48:48 43° E 04:51:43 10° ENE visible
01 Jul 3.3 20:05:41 10° NNW 20:06:47 16° NNW 20:06:47 16° NNW visible
